Погода в Тетрине

Россия / Мурманская область     66°03′49″N   38°14′25″E
темп.,
°C
ветер,
м/с
пор.,
м/с
влажн.,
%
обл.,
%
осадки,
мм/ч
давл.,
гПа
погр.,
м
20 сентября, пн
пн2000:00+5ссв22735 0.0 103677
03:00+5всв23795 0.0 1037207
06:00+4в23825 0.0 1037216
09:00+6в11735 0.0 1037248
12:00+7ююв11655 0.0 1037493
15:00+7ююз216626 0.0 1036477
18:00+6ю12715 0.0 1035182
21:00+5ю12715 0.0 1035250
21 сентября, вт
вт2100:00+5ююз027237 0.0 1035339
03:00+6ююв1265100 0.0 1034669
06:00+6ююв2364100 0.0 1033730
09:00+7ююв3462100 0.0 10321082
12:00+6ю447210 0.0 1031673
15:00+6ююв34725 0.0 1030635
18:00+5юв34762 0.0 1029314
21:00+5юв34760 0.0 1029273
22 сентября, ср
ср2200:00+5юв34793 0.0 1029227
03:00+5юв34812 0.0 1028248
06:00+6ю35810 0.0 1027286
09:00+7ю45770 0.0 1027486
12:00+7ююз56740 0.0 1027544
15:00+7ююз4674100 0.0 1025470
18:00+6ююв4682100 0.0 1024265
21:00+7ю5982100 0.0 1023252
23 сентября, чт
чт2300:00+7ююз5982100 0.0 1021308
03:00+6ююз5885100 0.0 1020290
06:00+6ю68854 0.0 1018328
09:00+7ю69780 0.0 1017444
12:00+7ююв68785 0.0 1015452
15:00+8ююв7108219 0.0 1013485
18:00+8ююв8147941 0.0 1011539
21:00+7ююв91293100 0.2 1009552
24 сентября, пт
пт2400:00+7ююв7995100 0.4 1008490
03:00+7ююв7994100 0.4 1006544
06:00+7ююв81195100 0.1 1005630
09:00+7ююв91294100 0.3 1004608
12:00+8ююв101492100 0.1 1004724
15:00+8юв101387100 0.1 1003739
18:00+8ююв81392100 0.3 1002733
21:00+8юв51195100 2.3 1000548